Location: Asarope
(8.2500°N, 4.4833°E)
Time: 03:21:58
(UTC+00:00)

Tiangong - Visible Passes

Search period start: 31 July 2021 00:00
Search period end: 10 August 2021 00:00
Orbit: 373 x 386 km, 41.5° (Epoch: 30 July)

Date Brightness Start Highest point End Pass type
(mag) Time Alt. Az. Time Alt. Az. Time Alt. Az.
31 Jul 1.4 04:56:02 14° WSW 04:58:31 49° NW 05:01:34 10° NE visible
01 Aug 2.5 03:58:06 37° E 03:58:06 37° E 04:00:19 10° ENE visible
02 Aug 2.7 04:32:13 19° NW 04:32:38 20° NW 04:35:03 10° N visible
03 Aug 4.4 03:34:07 12° NE 03:34:07 12° NE 03:34:24 10° NE visible
